Tracking 20719 objects as of 25-May-2020
HD Live streaming from Space Station
objects crossing your sky now

IRIDIUM 33 DEB

Track IRIDIUM 33 DEB now!
10-day predictions


NORAD ID: 33960
Int'l Code: 1997-051BV
Perigee: 732.3 km
Apogee: 749.1 km
Inclination: 86.3 °
Period: 99.5 minutes
Semi major axis: 7111 km
RCS: 0.042 m2 (small)
Launch date: September 14, 1997
Source: United States (US)
Launch site: TYURATAM MISSILE AND SPACE COMPLEX (TTMTR)

Note: This is SATELLITE DEBRIS
aabbcc
Your satellite tracking list
Your tracking list is empty




NASA's NSSDC Master Catalog

Two Line Element Set (TLE):
1 33960U 97051BV  20143.97723926 +.00000914 +00000-0 +24264-3 0  9993
2 33960 086.2725 120.8543 0011817 099.7300 316.7844 14.47577267593260
Source of the keplerian elements: AFSPC